Погода в Сьюдад-Боливар

Венесуэла     8°07′04″N   63°32′33″W
темп.,
°C
ветер,
м/с
пор.,
м/с
влажн.,
%
обл.,
%
осадки,
мм/ч
давл.,
гПа
погр.,
м
9 мая, вс
вс923:00+25св5989100 2.6 1015463
02:00+24всв41091100 4.7 1013688
05:00+24всв398846 0.0 1014767
08:00+26в5107790 0.0 1015897
11:00+31в685351 0.0 10151795
14:00+32вюв784740 0.0 10121726
17:00+32в47415 0.0 10101848
20:00+29всв3755100 0.0 1013357
10 мая, пн
пн1023:00+26всв611715 0.1 1015627
02:00+25всв4108020 0.1 1013671
05:00+24всв498512 0.0 1013724
08:00+26в477452 0.0 1015871
11:00+31в585249 0.0 10141724
14:00+30всв4652100 0.1 10101504
17:00+30всв365599 0.1 1010810
20:00+28всв611644 0.1 1012655
11 мая, вт
вт1123:00+25всв611775 0.1 1014693
02:00+24всв410845 0.1 1013671
05:00+23всв398910 0.0 1013562
08:00+26всв587541 0.0 1015813
11:00+31в5751100 0.0 10141771
14:00+30всв4552100 0.1 10111402
17:00+29св355489 0.1 1010423
20:00+27всв386789 0.6 1012386
12 мая, ср
ср1223:00+25всв5107794 0.4 1014598
02:00+24всв498377 0.8 1013495
05:00+24всв39876 0.1 1014469
08:00+26всв587610 0.3 1015728
11:00+30в575572 0.2 10141597
14:00+33св364030 0.2 10102080
17:00+34в353694 0.0 10091155
20:00+30св485385 0.0 1012741
13 мая, чт
чт1323:00+27всв596188 0.0 1014627
02:00+25всв4973100 0.0 1013589
05:00+24всв387919 0.0 1014505
08:00+26всв4774100 0.0 1015750
11:00+29в4657100 0.0 10151467
14:00+34всв363687 0.1 10112560
17:00+30св585222 0.0 1010597
20:00+30св695559 0.0 1012802